Time,TemperatureF,DewpointF,PressureIn,WindDirection,WindDirectionDegrees,WindSpeedMPH,WindSpeedGustMPH,Humidity,HourlyPrecipIn,Conditions,Clouds,dailyrainin,SoftwareType,DateUTC
2013-01-13 00:00:00,22.9,18.8,30.06,West,276,0.0,3.0,84,0.00,,---,0.00,VWS V14.01,2013-01-13 08:00:00,
2013-01-13 00:03:00,22.9,18.5,30.06,West,276,0.0,0.0,83,0.00,,---,0.00,VWS V14.01,2013-01-13 08:03:00,
2013-01-13 00:08:00,22.8,18.4,30.06,West,276,0.0,0.0,83,0.00,,---,0.00,VWS V14.01,2013-01-13 08:08:00,
2013-01-13 00:13:00,22.8,18.4,30.06,West,277,0.0,1.0,83,0.00,,---,0.00,VWS V14.01,2013-01-13 08:13:00,
2013-01-13 00:18:00,22.9,18.5,30.06,West,262,0.0,2.0,83,0.00,,---,0.00,VWS V14.01,2013-01-13 08:18:00,
2013-01-13 00:23:00,23.0,18.6,30.06,WSW,256,0.0,2.0,83,0.00,,---,0.00,VWS V14.01,2013-01-13 08:23:00,
2013-01-13 00:28:00,22.9,18.5,30.06,WSW,256,0.0,2.0,83,0.00,,---,0.00,VWS V14.01,2013-01-13 08:28:00,
2013-01-13 00:30:00,22.9,18.5,30.06,WSW,256,0.0,2.0,83,0.00,,---,0.00,VWS V14.01,2013-01-13 08:30:00,
2013-01-13 00:33:00,23.0,18.9,30.06,West,276,0.0,1.0,84,0.00,,---,0.00,VWS V14.01,2013-01-13 08:33:00,
2013-01-13 00:38:00,23.0,18.9,30.06,West,266,0.0,1.0,84,0.00,,---,0.00,VWS V14.01,2013-01-13 08:38:00,
2013-01-13 00:43:00,23.1,19.0,30.06,West,266,0.0,1.0,84,0.00,,---,0.00,VWS V14.01,2013-01-13 08:43:00,
2013-01-13 00:48:00,23.1,19.0,30.06,WSW,257,0.0,1.0,84,0.00,,---,0.00,VWS V14.01,2013-01-13 08:48:00,
2013-01-13 00:53:00,23.4,19.3,30.06,WSW,258,0.0,1.0,84,0.00,,---,0.00,VWS V14.01,2013-01-13 08:53:00,
2013-01-13 00:58:00,23.6,19.5,30.07,WSW,256,0.0,1.0,84,0.00,,---,0.00,VWS V14.01,2013-01-13 08:58:00,
2013-01-13 01:00:00,23.6,19.5,30.07,WSW,256,0.0,1.0,84,0.00,,---,0.00,VWS V14.01,2013-01-13 09:00:00,
2013-01-13 01:03:00,23.8,19.7,30.06,West,259,0.0,0.0,84,0.00,,---,0.00,VWS V14.01,2013-01-13 09:03:00,
2013-01-13 01:08:00,23.8,19.4,30.07,WSW,242,0.0,0.0,83,0.00,,---,0.00,VWS V14.01,2013-01-13 09:08:00,
2013-01-13 01:13:00,23.9,19.5,30.07,WSW,257,0.0,0.0,83,0.00,,---,0.00,VWS V14.01,2013-01-13 09:13:00,
2013-01-13 01:18:00,24.1,19.7,30.07,West,259,0.0,0.0,83,0.00,,---,0.00,VWS V14.01,2013-01-13 09:18:00,
2013-01-13 01:23:00,24.2,19.5,30.07,West,267,0.0,1.0,82,0.00,,---,0.00,VWS V14.01,2013-01-13 09:23:00,
2013-01-13 01:28:00,24.1,19.1,30.07,WSW,243,0.0,1.0,81,0.00,,---,0.00,VWS V14.01,2013-01-13 09:28:00,
2013-01-13 01:30:00,24.1,19.1,30.07,WSW,243,0.0,1.0,81,0.00,,---,0.00,VWS V14.01,2013-01-13 09:30:00,
2013-01-13 01:33:00,23.9,18.9,30.07,WSW,247,0.0,0.0,81,0.00,,---,0.00,VWS V14.01,2013-01-13 09:33:00,
2013-01-13 01:38:00,23.6,18.6,30.07,WSW,246,0.0,0.0,81,0.00,,---,0.00,VWS V14.01,2013-01-13 09:38:00,
2013-01-13 01:43:00,23.3,18.6,30.08,WSW,246,0.0,0.0,82,0.00,,---,0.00,VWS V14.01,2013-01-13 09:43:00,
2013-01-13 01:48:00,23.2,18.8,30.08,WSW,240,0.0,1.0,83,0.00,,---,0.00,VWS V14.01,2013-01-13 09:48:00,
2013-01-13 01:53:00,23.0,18.3,30.08,SW,236,0.0,1.0,82,0.00,,---,0.00,VWS V14.01,2013-01-13 09:53:00,
2013-01-13 01:58:00,22.8,18.4,30.08,West,274,0.0,1.0,83,0.00,,---,0.00,VWS V14.01,2013-01-13 09:58:00,
2013-01-13 02:00:00,22.8,18.4,30.08,West,274,0.0,1.0,83,0.00,,---,0.00,VWS V14.01,2013-01-13 10:00:00,
2013-01-13 02:03:00,22.4,17.5,30.08,West,274,0.0,0.0,81,0.00,,---,0.00,VWS V14.01,2013-01-13 10:03:00,
2013-01-13 02:08:00,21.1,15.9,30.08,West,274,0.0,0.0,80,0.00,,---,0.00,VWS V14.01,2013-01-13 10:08:00,
2013-01-13 02:13:00,20.2,15.3,30.09,West,274,0.0,0.0,81,0.00,,---,0.00,VWS V14.01,2013-01-13 10:13:00,
2013-01-13 02:18:00,19.8,15.5,30.09,West,274,0.0,0.0,83,0.00,,---,0.00,VWS V14.01,2013-01-13 10:18:00,
2013-01-13 02:23:00,19.7,15.9,30.09,West,274,0.0,0.0,85,0.00,,---,0.00,VWS V14.01,2013-01-13 10:23:00,
2013-01-13 02:28:00,19.6,15.8,30.09,West,274,0.0,0.0,85,0.00,,---,0.00,VWS V14.01,2013-01-13 10:28:00,
2013-01-13 02:30:00,19.6,15.8,30.09,West,274,0.0,0.0,85,0.00,,---,0.00,VWS V14.01,2013-01-13 10:30:00,
2013-01-13 02:33:00,19.3,15.5,30.09,West,274,0.0,0.0,85,0.00,,---,0.00,VWS V14.01,2013-01-13 10:33:00,
2013-01-13 02:38:00,19.4,16.2,30.09,WSW,243,0.0,1.0,87,0.00,,---,0.00,VWS V14.01,2013-01-13 10:38:00,
2013-01-13 02:43:00,19.1,15.3,30.09,NW,323,0.0,1.0,85,0.00,,---,0.00,VWS V14.01,2013-01-13 10:43:00,
2013-01-13 02:48:00,19.1,15.6,30.09,NW,323,0.0,1.0,86,0.00,,---,0.00,VWS V14.01,2013-01-13 10:48:00,
2013-01-13 02:53:00,18.9,15.1,30.09,SW,229,0.0,1.0,85,0.00,,---,0.00,VWS V14.01,2013-01-13 10:53:00,
2013-01-13 02:58:00,18.4,14.9,30.09,SW,228,0.0,1.0,86,0.00,,---,0.00,VWS V14.01,2013-01-13 10:58:00,
2013-01-13 03:00:00,18.4,14.9,30.09,SW,228,0.0,1.0,86,0.00,,---,0.00,VWS V14.01,2013-01-13 11:00:00,
2013-01-13 03:02:00,18.3,14.8,30.09,SW,227,0.0,0.0,86,0.00,,---,0.00,VWS V14.01,2013-01-13 11:02:00,
2013-01-13 03:07:00,18.6,15.4,30.10,SW,228,0.0,0.0,87,0.00,,---,0.00,VWS V14.01,2013-01-13 11:07:00,
2013-01-13 03:12:00,18.7,15.5,30.10,SW,228,0.0,0.0,87,0.00,,---,0.00,VWS V14.01,2013-01-13 11:12:00,
2013-01-13 03:17:00,18.6,15.1,30.10,SW,228,0.0,0.0,86,0.00,,---,0.00,VWS V14.01,2013-01-13 11:17:00,
2013-01-13 03:22:00,18.3,14.6,30.10,SW,228,0.0,0.0,85,0.00,,---,0.00,VWS V14.01,2013-01-13 11:22:00,
2013-01-13 03:28:00,17.7,14.0,30.10,SW,219,0.0,0.0,85,0.00,,---,0.00,VWS V14.01,2013-01-13 11:28:00,
2013-01-13 03:30:00,17.6,13.9,30.10,SW,219,0.0,0.0,85,0.00,,---,0.00,VWS V14.01,2013-01-13 11:30:00,
2013-01-13 03:32:00,17.5,14.0,30.09,SW,219,0.0,0.0,86,0.00,,---,0.00,VWS V14.01,2013-01-13 11:32:00,
2013-01-13 03:37:00,17.5,14.0,30.09,SW,219,0.0,0.0,86,0.00,,---,0.00,VWS V14.01,2013-01-13 11:37:00,
2013-01-13 03:42:00,17.2,13.7,30.09,SW,219,0.0,0.0,86,0.00,,---,0.00,VWS V14.01,2013-01-13 11:42:00,
2013-01-13 03:47:00,17.1,13.9,30.09,SW,219,0.0,0.0,87,0.00,,---,0.00,VWS V14.01,2013-01-13 11:47:00,
2013-01-13 03:52:00,17.0,13.5,30.09,SW,220,0.0,0.0,86,0.00,,---,0.00,VWS V14.01,2013-01-13 11:52:00,
2013-01-13 03:57:00,16.9,13.4,30.09,WSW,240,0.0,0.0,86,0.00,,---,0.00,VWS V14.01,2013-01-13 11:57:00,
2013-01-13 04:00:00,17.0,13.8,30.09,WSW,240,0.0,0.0,87,0.00,,---,0.00,VWS V14.01,2013-01-13 12:00:00,
2013-01-13 04:02:00,17.3,14.1,30.09,WSW,237,0.0,1.0,87,0.00,,---,0.00,VWS V14.01,2013-01-13 12:02:00,
2013-01-13 04:07:00,17.6,14.4,30.10,SW,236,0.0,1.0,87,0.00,,---,0.00,VWS V14.01,2013-01-13 12:07:00,
2013-01-13 04:12:00,17.7,14.0,30.10,WSW,237,0.0,1.0,85,0.00,,---,0.00,VWS V14.01,2013-01-13 12:12:00,
2013-01-13 04:17:00,17.1,13.1,30.10,West,267,0.0,1.0,84,0.00,,---,0.00,VWS V14.01,2013-01-13 12:17:00,
2013-01-13 04:22:00,16.7,13.0,30.10,WSW,242,0.0,1.0,85,0.00,,---,0.00,VWS V14.01,2013-01-13 12:22:00,
2013-01-13 04:27:00,16.9,13.4,30.09,SW,233,0.0,1.0,86,0.00,,---,0.00,VWS V14.01,2013-01-13 12:27:00,
2013-01-13 04:30:00,16.9,13.4,30.09,SW,233,0.0,1.0,86,0.00,,---,0.00,VWS V14.01,2013-01-13 12:30:00,
2013-01-13 04:32:00,16.8,12.8,30.09,SW,215,0.0,2.0,84,0.00,,---,0.00,VWS V14.01,2013-01-13 12:32:00,
2013-01-13 04:37:00,15.6,10.8,30.09,NNW,330,0.0,2.0,81,0.00,,---,0.00,VWS V14.01,2013-01-13 12:37:00,
2013-01-13 04:42:00,15.5,11.3,30.10,NW,311,3.0,3.0,83,0.00,,---,0.00,VWS V14.01,2013-01-13 12:42:00,
2013-01-13 04:47:00,14.1,9.9,30.10,WNW,294,1.0,3.0,83,0.00,,---,0.00,VWS V14.01,2013-01-13 12:47:00,
2013-01-13 04:52:00,13.7,10.0,30.10,West,277,0.0,3.0,85,0.00,,---,0.00,VWS V14.01,2013-01-13 12:52:00,
2013-01-13 04:57:00,13.5,9.8,30.09,West,271,1.0,3.0,85,0.00,,---,0.00,VWS V14.01,2013-01-13 12:57:00,
2013-01-13 05:00:00,13.5,10.1,30.09,West,278,0.0,3.0,86,0.00,,---,0.00,VWS V14.01,2013-01-13 13:00:00,
2013-01-13 05:02:00,13.6,10.2,30.10,West,271,1.0,3.0,86,0.00,,---,0.00,VWS V14.01,2013-01-13 13:02:00,
2013-01-13 05:07:00,13.7,10.6,30.10,West,263,2.0,3.0,87,0.00,,---,0.00,VWS V14.01,2013-01-13 13:07:00,
2013-01-13 05:12:00,14.2,11.3,30.10,West,263,1.0,3.0,88,0.00,,---,0.00,VWS V14.01,2013-01-13 13:12:00,
2013-01-13 05:17:00,14.7,11.8,30.10,SW,233,0.0,3.0,88,0.00,,---,0.00,VWS V14.01,2013-01-13 13:17:00,
2013-01-13 05:22:00,14.8,11.9,30.10,SW,231,0.0,3.0,88,0.00,,---,0.00,VWS V14.01,2013-01-13 13:22:00,
2013-01-13 05:27:00,15.0,12.1,30.10,WSW,243,0.0,3.0,88,0.00,,---,0.00,VWS V14.01,2013-01-13 13:27:00,
2013-01-13 05:30:00,15.0,12.1,30.10,WSW,240,0.0,3.0,88,0.00,,---,0.00,VWS V14.01,2013-01-13 13:30:00,
2013-01-13 05:32:00,15.2,12.3,30.10,West,264,0.0,1.0,88,0.00,,---,0.00,VWS V14.01,2013-01-13 13:32:00,
2013-01-13 05:37:00,15.2,12.3,30.10,SSW,212,0.0,3.0,88,0.00,,---,0.00,VWS V14.01,2013-01-13 13:37:00,
2013-01-13 05:42:00,15.3,12.4,30.10,West,263,0.0,3.0,88,0.00,,---,0.00,VWS V14.01,2013-01-13 13:42:00,
2013-01-13 05:47:00,15.4,12.5,30.10,WNW,284,2.0,3.0,88,0.00,,---,0.00,VWS V14.01,2013-01-13 13:47:00,
2013-01-13 05:52:00,15.1,11.9,30.10,West,281,0.0,3.0,87,0.00,,---,0.00,VWS V14.01,2013-01-13 13:52:00,
2013-01-13 05:57:00,14.9,11.7,30.10,West,262,0.0,3.0,87,0.00,,---,0.00,VWS V14.01,2013-01-13 13:57:00,
2013-01-13 06:00:00,14.9,11.7,30.10,WSW,256,1.0,3.0,87,0.00,,---,0.00,VWS V14.01,2013-01-13 14:00:00,
2013-01-13 06:02:00,15.0,12.1,30.10,WSW,243,0.0,2.0,88,0.00,,---,0.00,VWS V14.01,2013-01-13 14:02:00,
2013-01-13 06:07:00,14.6,11.2,30.10,NW,326,0.0,2.0,86,0.00,,---,0.00,VWS V14.01,2013-01-13 14:07:00,
2013-01-13 06:12:00,13.4,9.7,30.11,West,271,1.0,2.0,85,0.00,,---,0.00,VWS V14.01,2013-01-13 14:12:00,
2013-01-13 06:17:00,13.2,10.1,30.11,WSW,243,0.0,2.0,87,0.00,,---,0.00,VWS V14.01,2013-01-13 14:17:00,
2013-01-13 06:22:00,13.4,10.5,30.11,WSW,239,0.0,2.0,88,0.00,,---,0.00,VWS V14.01,2013-01-13 14:22:00,
2013-01-13 06:27:00,13.9,11.3,30.11,WSW,240,0.0,2.0,89,0.00,,---,0.00,VWS V14.01,2013-01-13 14:27:00,
2013-01-13 06:30:00,14.1,11.5,30.11,WSW,239,0.0,2.0,89,0.00,,---,0.00,VWS V14.01,2013-01-13 14:30:00,
2013-01-13 06:32:00,14.6,11.9,30.10,WSW,238,1.0,2.0,89,0.00,,---,0.00,VWS V14.01,2013-01-13 14:32:00,
2013-01-13 06:37:00,14.9,12.2,30.11,West,262,1.0,2.0,89,0.00,,---,0.00,VWS V14.01,2013-01-13 14:37:00,
2013-01-13 06:42:00,15.3,12.6,30.11,West,277,0.0,2.0,89,0.00,,---,0.00,VWS V14.01,2013-01-13 14:42:00,
2013-01-13 06:47:00,14.8,11.4,30.11,West,274,0.0,2.0,86,0.00,,---,0.00,VWS V14.01,2013-01-13 14:47:00,
2013-01-13 06:52:00,13.7,9.8,30.12,West,274,0.0,2.0,84,0.00,,---,0.00,VWS V14.01,2013-01-13 14:52:00,
2013-01-13 06:57:00,12.8,9.1,30.12,West,263,1.0,2.0,85,0.00,,---,0.00,VWS V14.01,2013-01-13 14:57:00,
2013-01-13 07:00:00,12.8,9.4,30.12,West,266,1.0,3.0,86,0.00,,---,0.00,VWS V14.01,2013-01-13 15:00:00,
2013-01-13 07:02:00,13.3,10.4,30.12,WSW,240,0.0,3.0,88,0.00,,---,0.00,VWS V14.01,2013-01-13 15:02:00,
2013-01-13 07:07:00,13.4,10.3,30.12,WSW,253,0.0,3.0,87,0.00,,---,0.00,VWS V14.01,2013-01-13 15:07:00,
2013-01-13 07:12:00,13.5,10.4,30.12,WSW,237,0.0,3.0,87,0.00,,---,0.00,VWS V14.01,2013-01-13 15:12:00,
2013-01-13 07:17:00,13.7,10.6,30.12,SW,233,0.0,3.0,87,0.00,,---,0.00,VWS V14.01,2013-01-13 15:17:00,
2013-01-13 07:22:00,14.9,12.2,30.12,WSW,246,0.0,3.0,89,0.00,,---,0.00,VWS V14.01,2013-01-13 15:22:00,
2013-01-13 07:27:00,16.3,13.4,30.12,West,260,0.0,3.0,88,0.00,,---,0.00,VWS V14.01,2013-01-13 15:27:00,
2013-01-13 07:30:00,16.5,13.6,30.12,West,259,0.0,3.0,88,0.00,,---,0.00,VWS V14.01,2013-01-13 15:30:00,
2013-01-13 07:32:00,17.2,13.2,30.12,WNW,301,0.0,1.0,84,0.00,,---,0.00,VWS V14.01,2013-01-13 15:32:00,
2013-01-13 07:37:00,16.0,11.2,30.12,NW,317,1.0,1.0,81,0.00,,---,0.00,VWS V14.01,2013-01-13 15:37:00,
2013-01-13 07:42:00,15.2,10.4,30.13,NW,312,1.0,3.0,81,0.00,,---,0.00,VWS V14.01,2013-01-13 15:42:00,
2013-01-13 07:47:00,15.1,10.9,30.13,WNW,293,0.0,4.0,83,0.00,,---,0.00,VWS V14.01,2013-01-13 15:47:00,
2013-01-13 07:52:00,15.8,12.1,30.13,NW,313,2.0,4.0,85,0.00,,---,0.00,VWS V14.01,2013-01-13 15:52:00,
2013-01-13 07:57:00,16.7,13.2,30.14,WNW,283,2.0,4.0,86,0.00,,---,0.00,VWS V14.01,2013-01-13 15:57:00,
2013-01-13 08:00:00,16.9,13.4,30.14,West,263,2.0,4.0,86,0.00,,---,0.00,VWS V14.01,2013-01-13 16:00:00,
2013-01-13 08:02:00,17.8,14.3,30.14,West,269,0.0,2.0,86,0.00,,---,0.00,VWS V14.01,2013-01-13 16:02:00,
2013-01-13 08:07:00,18.8,15.1,30.14,WSW,249,0.0,2.0,85,0.00,,---,0.00,VWS V14.01,2013-01-13 16:07:00,
2013-01-13 08:12:00,19.7,15.9,30.13,WSW,252,0.0,2.0,85,0.00,,---,0.00,VWS V14.01,2013-01-13 16:12:00,
2013-01-13 08:17:00,20.9,16.8,30.12,WSW,255,0.0,2.0,84,0.00,,---,0.00,VWS V14.01,2013-01-13 16:17:00,
2013-01-13 08:22:00,22.2,18.1,30.12,WSW,252,0.0,2.0,84,0.00,,---,0.00,VWS V14.01,2013-01-13 16:22:00,
2013-01-13 08:27:00,23.8,19.7,30.12,West,267,0.0,2.0,84,0.00,,---,0.00,VWS V14.01,2013-01-13 16:27:00,
2013-01-13 08:30:00,24.0,19.6,30.12,WSW,255,0.0,2.0,83,0.00,,---,0.00,VWS V14.01,2013-01-13 16:30:00,
2013-01-13 08:32:00,25.4,20.1,30.12,West,274,0.0,2.0,80,0.00,,---,0.00,VWS V14.01,2013-01-13 16:32:00,
2013-01-13 08:37:00,26.9,20.4,30.12,West,266,0.0,2.0,76,0.00,,---,0.00,VWS V14.01,2013-01-13 16:37:00,
2013-01-13 08:42:00,27.8,20.0,30.13,WNW,300,3.0,4.0,72,0.00,,---,0.00,VWS V14.01,2013-01-13 16:42:00,
2013-01-13 08:47:00,28.5,20.6,30.13,West,280,1.0,4.0,72,0.00,,---,0.00,VWS V14.01,2013-01-13 16:47:00,
2013-01-13 08:52:00,28.6,21.1,30.13,NW,306,2.0,4.0,73,0.00,,---,0.00,VWS V14.01,2013-01-13 16:52:00,
2013-01-13 08:57:00,28.6,20.4,30.14,NW,325,3.0,4.0,71,0.00,,---,0.00,VWS V14.01,2013-01-13 16:57:00,
2013-01-13 09:00:00,28.6,20.4,30.14,WNW,302,4.0,5.0,71,0.00,,---,0.00,VWS V14.01,2013-01-13 17:00:00,
2013-01-13 09:02:00,28.9,20.4,30.13,West,281,1.0,4.0,70,0.00,,---,0.00,VWS V14.01,2013-01-13 17:02:00,
2013-01-13 09:07:00,29.6,21.0,30.13,WNW,287,1.0,4.0,70,0.00,,---,0.00,VWS V14.01,2013-01-13 17:07:00,
2013-01-13 09:12:00,30.2,21.3,30.13,West,281,1.0,4.0,69,0.00,,---,0.00,VWS V14.01,2013-01-13 17:12:00,
2013-01-13 09:17:00,30.9,21.2,30.13,WNW,295,1.0,4.0,67,0.00,,---,0.00,VWS V14.01,2013-01-13 17:17:00,
2013-01-13 09:22:00,31.5,20.7,30.13,WNW,294,2.0,4.0,64,0.00,,---,0.00,VWS V14.01,2013-01-13 17:22:00,
2013-01-13 09:30:00,32.2,20.7,30.14,WNW,292,1.0,4.0,62,0.00,,---,0.00,VWS V14.01,2013-01-13 17:30:00,
2013-01-13 10:00:00,36.0,15.7,30.13,WNW,292,1.0,4.0,43,0.00,,---,0.00,VWS V14.01,2013-01-13 18:00:00,
2013-01-13 10:30:00,37.4,12.3,30.11,SSE,158,0.0,3.0,35,0.00,,---,0.00,VWS V14.01,2013-01-13 18:30:00,
2013-01-13 11:00:00,38.7,12.1,30.09,West,270,1.0,4.0,33,0.00,,---,0.00,VWS V14.01,2013-01-13 19:00:00,
2013-01-13 11:30:00,40.0,11.8,30.07,NE,45,1.0,4.0,31,0.00,,---,0.00,VWS V14.01,2013-01-13 19:30:00,
2013-01-13 12:00:00,41.1,12.0,30.04,West,270,1.0,4.0,30,0.00,,---,0.00,VWS V14.01,2013-01-13 20:00:00,
2013-01-13 12:30:00,41.5,13.1,30.02,West,270,1.0,6.0,31,0.00,,---,0.00,VWS V14.01,2013-01-13 20:30:00,
2013-01-13 13:00:00,42.4,12.4,30.01,WNW,292,4.0,12.0,29,0.00,,---,0.00,VWS V14.01,2013-01-13 21:00:00,
2013-01-13 13:30:00,42.4,15.4,30.02,WNW,292,8.0,16.0,33,0.00,,---,0.00,VWS V14.01,2013-01-13 21:30:00,
2013-01-13 14:00:00,41.7,18.6,30.02,WNW,292,9.0,17.0,39,0.00,,---,0.00,VWS V14.01,2013-01-13 22:00:00,
2013-01-13 14:30:00,40.4,19.1,30.02,WNW,292,7.0,15.0,42,0.00,,---,0.00,VWS V14.01,2013-01-13 22:30:00,
2013-01-13 15:00:00,39.5,18.9,30.02,West,270,6.0,15.0,43,0.00,,---,0.00,VWS V14.01,2013-01-13 23:00:00,
2013-01-13 15:30:00,37.6,21.1,30.02,West,270,6.0,14.0,51,0.00,,---,0.00,VWS V14.01,2013-01-13 23:30:00,
2013-01-13 16:00:00,37.3,19.4,30.01,West,270,6.0,14.0,48,0.00,,---,0.00,VWS V14.01,2013-01-14 00:00:00,
2013-01-13 16:30:00,35.2,21.1,30.00,West,270,7.0,14.0,56,0.00,,---,0.00,VWS V14.01,2013-01-14 00:30:00,
2013-01-13 17:00:00,33.4,20.2,30.03,WNW,292,6.0,19.0,58,0.00,,---,0.00,VWS V14.01,2013-01-14 01:00:00,
2013-01-13 17:30:00,31.6,19.3,30.04,West,270,4.0,8.0,60,0.00,,---,0.00,VWS V14.01,2013-01-14 01:30:00,
2013-01-13 18:00:00,30.6,19.1,30.04,West,270,7.0,13.0,62,0.00,,---,0.00,VWS V14.01,2013-01-14 02:00:00,
2013-01-13 18:30:00,29.4,20.2,30.04,West,270,7.0,16.0,68,0.00,,---,0.00,VWS V14.01,2013-01-14 02:30:00,
2013-01-13 19:00:00,28.3,20.1,30.05,West,270,2.0,8.0,71,0.00,,---,0.00,VWS V14.01,2013-01-14 03:00:00,
2013-01-13 19:30:00,26.7,18.9,30.06,WSW,248,2.0,6.0,72,0.00,,---,0.00,VWS V14.01,2013-01-14 03:30:00,
2013-01-13 20:00:00,27.3,21.1,30.06,WSW,248,1.0,10.0,77,0.00,,---,0.00,VWS V14.01,2013-01-14 04:00:00,
2013-01-13 20:30:00,26.2,19.1,30.07,WNW,292,1.0,4.0,74,0.00,,---,0.00,VWS V14.01,2013-01-14 04:30:00,
2013-01-13 21:00:00,22.2,16.7,30.08,NNE,22,0.0,2.0,79,0.00,,---,0.00,VWS V14.01,2013-01-14 05:00:00,
2013-01-13 21:30:00,20.8,15.6,30.09,SSE,158,0.0,1.0,80,0.00,,---,0.00,VWS V14.01,2013-01-14 05:30:00,
2013-01-13 22:00:00,16.7,11.1,30.11,NW,315,0.0,2.0,78,0.00,,---,0.00,VWS V14.01,2013-01-14 06:00:00,
2013-01-13 22:30:00,23.0,9.7,30.12,SE,135,2.0,5.0,56,0.00,,---,0.00,VWS V14.01,2013-01-14 06:30:00,
2013-01-13 23:00:00,19.1,6.8,30.14,SE,135,0.0,3.0,58,0.00,,---,0.00,VWS V14.01,2013-01-14 07:00:00,
2013-01-13 23:30:00,16.6,6.2,30.15,North,0,0.0,3.0,63,0.00,,---,0.00,VWS V14.01,2013-01-14 07:30:00,